Change the Weather History Date:

Sunday, December 4, 2011

  Actual Average Record
Temperature  
Mean Temperature 45 °F 41 °F  
Max Temperature 54 °F 48 °F 70 °F (1982)
Min Temperature 35 °F 35 °F 15 °F (1966)
Degree Days  
Heating Degree Days 20 24  
Month to date heating degree days 85 93  
Since 1 July heating degree days 752 917  
Cooling Degree Days 0 0  
Month to date cooling degree days 0 0  
Year to date cooling degree days 1267 1005  
Moisture  
Dew Point 40 °F    
Average Humidity 76    
Maximum Humidity 93    
Minimum Humidity 59    
Precipitation  
Precipitation 0.00 in 0.12 in 2.05 in (1968)
Month to date precipitation 0.00 0.48  
Year to date precipitation 52.65 39.86  
Snow  
Snow 0.00 in 0.10 in 3.20 in (2005)
Month to date snowfall 0.0 0.3  
Since 1 July snowfall 1.5 0.5  
Snow Depth 0.00 in    
Sea Level Pressure  
Sea Level Pressure 30.52 in    
Wind  
Wind Speed 5 mph (SSE)    
Max Wind Speed 13 mph    
Max Gust Speed 15 mph    
Visibility 10 miles    
Events      
T = Trace of Precipitation, MM = Missing Value Source: NWS Daily Summary

Daily Weather History Graph

Daily Weather History Graph

Search for Another Location

Airport or City:

Trip Planner

Search our weather history database for the weather conditions in past years. The results will help you decide how hot, cold, wet, or windy it might be!

Date:

Astronomy

Dec. 04, 2011 Rise Set
Actual Time 7:02 AM EST 4:28 PM EST
Civil Twilight 6:31 AM EST 4:58 PM EST
Nautical Twilight 5:57 AM EST 5:32 PM EST
Astronomical Twilight 5:24 AM EST 6:05 PM EST
Moon 12:58 PM EST 1:23 AM EST
Length of Visible Light 10h 26m
Length of Day
9h 25m
Waxing Gibbous, 71% of the Moon is Illuminated
Dec 4
Waxing Gibbous
Dec 10
Full
Dec 17
Last Quarter
Dec 24
New
Jan 1
First Quarter

Hourly Weather History & Observations

Time (EST) Temp. Windchill Dew Point Humidity Pressure Visibility Wind Dir Wind Speed Gust Speed Precip Events Conditions
12:51 AM 36.0 °F - 30.9 °F 82% 30.61 in 10.0 mi Calm Calm - N/A   Mostly Cloudy
1:46 AM 35.6 °F - 30.2 °F 81% 30.61 in 10.0 mi Calm Calm - N/A   Mostly Cloudy
1:51 AM 37.0 °F - 32.0 °F 82% 30.61 in 10.0 mi Calm Calm - N/A   Mostly Cloudy
2:51 AM 37.0 °F 34.5 °F 33.1 °F 86% 30.61 in 10.0 mi ENE 3.5 mph - N/A   Mostly Cloudy
3:51 AM 37.9 °F 35.5 °F 33.1 °F 83% 30.59 in 10.0 mi NE 3.5 mph - N/A   Mostly Cloudy
4:51 AM 39.9 °F 36.7 °F 34.0 °F 79% 30.58 in 10.0 mi NE 4.6 mph - N/A   Mostly Cloudy
5:51 AM 41.0 °F 38.0 °F 35.1 °F 79% 30.58 in 10.0 mi ENE 4.6 mph - N/A   Overcast
6:51 AM 42.1 °F 40.2 °F 35.1 °F 76% 30.58 in 10.0 mi ENE 3.5 mph - N/A   Mostly Cloudy
7:51 AM 43.0 °F - 36.0 °F 76% 30.58 in 10.0 mi Calm Calm - N/A   Mostly Cloudy
8:51 AM 45.0 °F - 37.9 °F 76% 30.58 in 10.0 mi Calm Calm - N/A   Mostly Cloudy
9:51 AM 48.0 °F - 39.0 °F 71% 30.57 in 10.0 mi Calm Calm - N/A   Mostly Cloudy
10:51 AM 50.0 °F - 37.9 °F 63% 30.56 in 10.0 mi Calm Calm - N/A   Mostly Cloudy
11:51 AM 53.1 °F - 39.0 °F 59% 30.53 in 10.0 mi South 5.8 mph - N/A   Scattered Clouds
12:51 PM 54.0 °F - 41.0 °F 62% 30.49 in 10.0 mi South 11.5 mph - N/A   Scattered Clouds
1:51 PM 54.0 °F - 43.0 °F 66% 30.47 in 10.0 mi South 10.4 mph - N/A   Scattered Clouds
2:51 PM 53.1 °F - 44.1 °F 71% 30.45 in 10.0 mi South 9.2 mph - N/A   Mostly Cloudy
3:51 PM 52.0 °F - 45.0 °F 77% 30.44 in 10.0 mi SSE 8.1 mph - N/A   Mostly Cloudy
4:51 PM 50.0 °F - 45.0 °F 83% 30.44 in 10.0 mi SE 5.8 mph - N/A   Mostly Cloudy
5:51 PM 50.0 °F - 46.0 °F 86% 30.43 in 10.0 mi SSE 8.1 mph - N/A   Scattered Clouds
6:51 PM 50.0 °F - 46.9 °F 89% 30.44 in 10.0 mi South 6.9 mph - N/A   Scattered Clouds
7:51 PM 51.1 °F - 48.0 °F 89% 30.44 in 10.0 mi South 6.9 mph - N/A   Mostly Cloudy
8:51 PM 51.1 °F - 48.9 °F 92% 30.43 in 10.0 mi South 6.9 mph - N/A   Mostly Cloudy
9:51 PM 51.1 °F - 48.9 °F 92% 30.43 in 10.0 mi SSW 6.9 mph - N/A   Mostly Cloudy
10:51 PM 50.0 °F - 48.0 °F 93% 30.43 in 10.0 mi SSW 3.5 mph - N/A   Mostly Cloudy
11:51 PM 50.0 °F - 48.0 °F 93% 30.42 in 10.0 mi Calm Calm - N/A   Mostly Cloudy